[[{"header":{"parameterUnit":"m.s-1","parameterCategory":2,"la1":30.2992,"la2":30.254,"lo1":-89.0895,"lo2":-89.0443,"dy":0.0025,"dx":0.0025,"nx":19,"ny":19,"refTime":"2026-03-10T09:00:00:Z","depth":"0","parameterNumber":2,"parameterNumberName":"U-component_of_CURRENTS"},"data":[0,0,0,-0.2311,-0.2312,-0.2345,-0.2345,-0.2355,-0.2355,0,0,0,0,0,0,0,0,0,0,0,-0.2294,-0.2294,-0.2311,-0.2312,-0.2345,-0.2345,-0.2355,-0.2355,0,0,0,0,0,0,0,0,0,0,0,-0.2294,-0.2294,-0.2294,-0.2312,-0.2345,-0.2345,-0.2355,-0.2339,0,0,0,0,0,0,0,0,0,0,-0.2311,-0.2304,-0.2294,-0.2294,-0.2312,-0.2345,-0.2345,-0.2339,-0.234,-0.233,0,-0.233,0,-0.2343,-0.2355,-0.2355,0,0,0,-0.2315,-0.2303,-0.2307,-0.2294,-0.2312,-0.2345,-0.2331,-0.234,-0.2341,-0.2332,-0.2331,-0.2331,-0.2343,-0.2355,-0.2355,-0.2354,-0.2354,0,0,-0.2313,-0.2306,-0.2306,-0.2308,-0.2313,-0.233,-0.2332,-0.2341,-0.2341,-0.2331,-0.2332,-0.2343,-0.2355,-0.2355,-0.2354,-0.2354,0,0,0,-0.2306,-0.2305,-0.2309,-0.2307,-0.2315,-0.233,-0.2333,-0.2341,-0.2341,-0.2332,-0.2343,-0.2355,-0.2355,-0.2354,-0.2354,-0.2367,0,0,0,-0.2305,-0.23,-0.2308,-0.2306,-0.2315,-0.2335,-0.2333,-0.234,-0.2342,-0.2343,-0.2355,-0.2355,-0.2354,-0.2354,-0.2367,-0.2367,0,0,0,-0.2294,-0.23,-0.23,-0.2305,-0.2318,-0.2335,-0.2336,-0.2341,-0.2349,-0.2355,-0.2355,-0.2354,-0.2354,-0.2366,-0.2367,-0.2367,0,0,0,-0.2291,-0.2283,-0.23,-0.2306,-0.2318,-0.2343,-0.2336,-0.2356,-0.2364,-0.2355,-0.2354,-0.2354,-0.2366,-0.2366,-0.2367,-0.2244,-0.2236,0,0,-0.2277,-0.2281,-0.2288,-0.2304,-0.2326,-0.2339,-0.2362,-0.2367,-0.2359,-0.2349,-0.2349,-0.2367,-0.2366,-0.2367,-0.2248,-0.2239,0,0,0,-0.2282,-0.2279,-0.2293,-0.2312,-0.2339,-0.2363,-0.2374,-0.2373,-0.237,-0.2362,-0.2364,-0.2363,-0.2364,-0.2289,-0.2282,-0.2202,-0.2354,-0.2354,-0.2354,-0.226,-0.228,-0.2289,-0.2315,-0.2339,-0.2377,-0.2388,-0.2384,-0.238,-0.2378,-0.2373,-0.2379,-0.23,-0.2293,-0.2213,-0.2374,-0.2374,-0.2374,-0.2374,-0.2233,-0.2217,-0.2276,-0.2283,-0.233,-0.2352,-0.2387,-0.239,-0.2387,-0.2382,-0.2382,-0.2304,-0.2286,-0.2203,-0.2374,-0.2374,-0.2374,-0.2374,-0.2374,-0.2177,-0.2163,-0.2196,-0.2226,-0.2273,-0.233,-0.2352,-0.2382,-0.2389,-0.2393,-0.2306,-0.2304,-0.2232,-0.2395,-0.2395,-0.2395,-0.2395,-0.2395,-0.2395,-0.2079,-0.211,-0.211,-0.2164,-0.2191,-0.2247,-0.2327,-0.2341,-0.2328,-0.2304,-0.2303,-0.221,-0.2386,-0.2386,-0.2395,-0.2395,-0.2395,-0.2395,-0.2395,-0.1941,-0.1983,-0.1972,-0.1997,-0.2072,-0.2066,-0.2197,-0.2198,-0.2233,-0.2195,-0.2084,-0.225,-0.2231,-0.2235,-0.2231,-0.22,-0.22,-0.22,-0.22,-0.1842,-0.1868,-0.1837,-0.1852,-0.1898,-0.1967,-0.1904,-0.1936,-0.1944,-0.1897,-0.1962,-0.1917,-0.1928,-0.1891,-0.1902,-0.1891,-0.1775,-0.1775,-0.1774,-0.1752,-0.1767,-0.1701,-0.1744,-0.1796,-0.182,-0.1688,-0.1624,-0.1678,-0.1755,-0.1878,-0.1896,-0.1833,-0.1857,-0.1802,-0.1824,-0.1809,0,0]},{"header":{"parameterUnit":"m.s-1","parameterCategory":2,"la1":30.2992,"la2":30.254,"lo1":-89.0895,"lo2":-89.0443,"dy":0.0025,"dx":0.0025,"nx":19,"ny":19,"refTime":"2026-03-10T09:00:00:Z","depth":"0","parameterNumber":3,"parameterNumberName":"V-component_of_CURRENTS"},"data":[0,0,0,-0.007,-0.007,-0.001,-0.0009,0.0123,0.0124,0,0,0,0,0,0,0,0,0,0,0,-0.0088,-0.0088,-0.007,-0.0069,-0.001,-0.0009,0.0123,0.0124,0,0,0,0,0,0,0,0,0,0,0,-0.0088,-0.0088,-0.0089,-0.0069,-0.001,-0.0009,0.0123,0.007,0,0,0,0,0,0,0,0,0,0,0.0008,-0.0019,-0.0088,-0.0089,-0.0069,-0.001,-0.0009,0.0067,0.0073,0.0105,0,0.0096,0,0.0103,0.0132,0.0133,0,0,0,-0.0044,-0.0024,-0.0021,-0.0089,-0.0069,-0.001,-0.003,0.007,0.0078,0.0113,0.0098,0.0103,0.0105,0.0133,0.0134,0.0173,0.0173,0,0,-0.0047,-0.0057,-0.0027,-0.0018,-0.0075,-0.0032,-0.0028,0.0074,0.0082,0.0099,0.0106,0.0107,0.0134,0.0135,0.0174,0.0173,0,0,0,-0.0074,-0.0059,-0.0059,-0.0023,-0.0023,-0.0031,-0.0026,0.0078,0.0073,0.0107,0.0108,0.0135,0.0136,0.0174,0.0174,0.0078,0,0,0,-0.0075,-0.0077,-0.0061,-0.0063,-0.0026,0.0022,-0.0025,0.0066,0.0078,0.0108,0.0135,0.0137,0.0175,0.0174,0.0081,0.0046,0,0,0,-0.0087,-0.0077,-0.0081,-0.0064,-0.0052,0.002,0.0023,0.0069,0.0078,0.0133,0.0137,0.0175,0.0174,0.0085,0.0052,0.0069,0,0,0,-0.0084,-0.013,-0.0081,-0.0125,-0.0053,-0.006,0.0023,0.004,0.0076,0.0135,0.0175,0.0174,0.0086,0.0055,0.0072,0.0167,0.0164,0,0,-0.0152,-0.0138,-0.0167,-0.0123,-0.0163,-0.0065,-0.0075,0.001,0.0076,0.0151,0.0152,0.008,0.0052,0.007,0.0106,0.0105,0,0,0,-0.0195,-0.0217,-0.022,-0.0224,-0.02,-0.016,-0.0075,-0.0028,0.0037,0.0088,0.0086,0.0071,0.0086,0.0149,0.0147,0.0341,0.0169,0.0169,0.0169,-0.0287,-0.028,-0.0327,-0.0312,-0.0298,-0.0219,-0.0179,-0.0093,-0.0025,-0.0015,-0.0003,-0.0051,0.0012,0.0013,0.021,-0.0002,-0.0002,-0.0002,-0.0002,-0.0398,-0.0431,-0.04,-0.0443,-0.0386,-0.0369,-0.0263,-0.0205,-0.0124,-0.0078,-0.0059,0.0048,0.0005,0.0217,-0.0009,-0.0008,-0.0007,-0.0006,-0.0006,-0.0462,-0.0482,-0.0491,-0.0528,-0.0523,-0.0455,-0.0427,-0.033,-0.0211,-0.0198,-0.0063,-0.006,0.0129,-0.0172,-0.0172,-0.0173,-0.0173,-0.0173,-0.0173,-0.0525,-0.054,-0.0594,-0.0616,-0.0634,-0.0621,-0.0514,-0.0434,-0.0257,-0.0148,-0.0145,0.0144,-0.0101,-0.0091,-0.0175,-0.0174,-0.0174,-0.0174,-0.0174,-0.0615,-0.0609,-0.0701,-0.0733,-0.0771,-0.0753,-0.0652,-0.0414,-0.0299,-0.0179,0.0183,-0.0092,-0.0035,-0.0031,-0.0018,-0.0077,-0.0077,-0.0077,-0.0077,-0.0661,-0.0671,-0.0782,-0.0848,-0.0891,-0.0817,-0.0651,-0.0373,0.0052,0.0284,0.033,0.0401,0.0389,0.0475,0.0467,0.0493,0.0564,0.0565,0.0566,-0.0707,-0.0743,-0.0822,-0.0888,-0.0939,-0.0857,-0.0638,-0.0249,0.0355,0.0609,0.0579,0.0552,0.0671,0.0636,0.0782,0.0756,0.0802,0,0]}],[{"header":{"parameterUnit":"m.s-1","parameterCategory":2,"la1":30.2992,"la2":30.254,"lo1":-89.0895,"lo2":-89.0443,"dy":0.0025,"dx":0.0025,"nx":19,"ny":19,"refTime":"2026-03-10T09:00:00:Z","depth":"2","parameterNumber":2,"parameterNumberName":"U-component_of_CURRENTS"},"data":[0,0,0,-0.1923,-0.1924,-0.1981,-0.1981,-0.2023,-0.2023,0,0,0,0,0,0,0,0,0,0,0,-0.19,-0.19,-0.1922,-0.1924,-0.1981,-0.1981,-0.2023,-0.2023,0,0,0,0,0,0,0,0,0,0,0,-0.19,-0.19,-0.1901,-0.1924,-0.198,-0.1981,-0.2023,-0.1986,0,0,0,0,0,0,0,0,0,0,-0.1935,-0.1914,-0.19,-0.1901,-0.1925,-0.198,-0.1981,-0.1985,-0.1988,-0.199,0,-0.2003,0,-0.2017,-0.2026,-0.2026,0,0,0,-0.1919,-0.1911,-0.1934,-0.1901,-0.1925,-0.198,-0.1954,-0.1987,-0.1991,-0.1995,-0.2003,-0.2005,-0.2018,-0.2026,-0.2026,-0.2079,-0.2079,0,0,-0.1916,-0.1902,-0.1931,-0.1936,-0.1945,-0.1952,-0.1955,-0.199,-0.1991,-0.2004,-0.2007,-0.2019,-0.2026,-0.2026,-0.2078,-0.2079,0,0,0,-0.191,-0.1899,-0.1922,-0.1934,-0.1949,-0.1954,-0.1958,-0.1989,-0.1999,-0.2007,-0.2019,-0.2026,-0.2027,-0.2078,-0.2078,-0.2099,0,0,0,-0.1908,-0.1897,-0.192,-0.1911,-0.1949,-0.1973,-0.1956,-0.1997,-0.2001,-0.2019,-0.2026,-0.2027,-0.2078,-0.2078,-0.2098,-0.2099,0,0,0,-0.1896,-0.1895,-0.1905,-0.1911,-0.1939,-0.1973,-0.1984,-0.1998,-0.2009,-0.2026,-0.2027,-0.2077,-0.2078,-0.2096,-0.2097,-0.2103,0,0,0,-0.1875,-0.1896,-0.1905,-0.1937,-0.1939,-0.1995,-0.1984,-0.2023,-0.2041,-0.2027,-0.2078,-0.2078,-0.2096,-0.2096,-0.2102,-0.1965,-0.1959,0,0,-0.1891,-0.1897,-0.192,-0.193,-0.1981,-0.1986,-0.2035,-0.2051,-0.2049,-0.2063,-0.2064,-0.2098,-0.2097,-0.2103,-0.2005,-0.1996,0,0,0,-0.1919,-0.1927,-0.1948,-0.1979,-0.2021,-0.2049,-0.207,-0.2077,-0.2093,-0.2064,-0.2106,-0.2105,-0.2108,-0.2024,-0.2018,-0.2082,-0.2082,-0.2081,-0.2081,-0.1895,-0.1932,-0.1964,-0.2009,-0.2047,-0.2094,-0.2113,-0.2123,-0.2123,-0.2133,-0.2128,-0.2154,-0.2066,-0.2059,-0.2139,-0.2139,-0.214,-0.214,-0.214,-0.1899,-0.1906,-0.1963,-0.2004,-0.2053,-0.2092,-0.2144,-0.215,-0.2166,-0.2159,-0.2161,-0.2057,-0.2053,-0.2141,-0.2141,-0.2141,-0.2141,-0.2141,-0.214,-0.1857,-0.1862,-0.1904,-0.1959,-0.2016,-0.2081,-0.2115,-0.2157,-0.2175,-0.2184,-0.2084,-0.2082,-0.2155,-0.2186,-0.2186,-0.2186,-0.2186,-0.2186,-0.2186,-0.1779,-0.1823,-0.1837,-0.191,-0.194,-0.2005,-0.2097,-0.2116,-0.211,-0.209,-0.2088,-0.2169,-0.2168,-0.2158,-0.2186,-0.2186,-0.2186,-0.2186,-0.2186,-0.1689,-0.1722,-0.1733,-0.1761,-0.1837,-0.1826,-0.1964,-0.1964,-0.2008,-0.1967,-0.203,-0.2034,-0.201,-0.2013,-0.1999,-0.1985,-0.1985,-0.1985,-0.1985,-0.1608,-0.1634,-0.162,-0.1636,-0.1676,-0.1732,-0.1653,-0.1663,-0.1744,-0.1744,-0.1755,-0.1706,-0.1719,-0.1678,-0.1689,-0.1667,-0.1567,-0.1567,-0.1566,-0.1529,-0.1549,-0.1497,-0.154,-0.1582,-0.1584,-0.1422,-0.1295,-0.1363,-0.1552,-0.1703,-0.1953,-0.1909,-0.1919,-0.1877,-0.1885,-0.186,0,0]},{"header":{"parameterUnit":"m.s-1","parameterCategory":2,"la1":30.2992,"la2":30.254,"lo1":-89.0895,"lo2":-89.0443,"dy":0.0025,"dx":0.0025,"nx":19,"ny":19,"refTime":"2026-03-10T09:00:00:Z","depth":"2","parameterNumber":3,"parameterNumberName":"V-component_of_CURRENTS"},"data":[0,0,0,-0.0277,-0.0276,-0.0221,-0.022,-0.0108,-0.0107,0,0,0,0,0,0,0,0,0,0,0,-0.0292,-0.0292,-0.0277,-0.0276,-0.0221,-0.022,-0.0108,-0.0107,0,0,0,0,0,0,0,0,0,0,0,-0.0292,-0.0292,-0.0292,-0.0276,-0.0221,-0.022,-0.0108,-0.0157,0,0,0,0,0,0,0,0,0,0,-0.0214,-0.0246,-0.0292,-0.0292,-0.0275,-0.0221,-0.022,-0.016,-0.0154,-0.0124,0,-0.0122,0,-0.0117,-0.0099,-0.0099,0,0,0,-0.0263,-0.0251,-0.0233,-0.0292,-0.0275,-0.0221,-0.0242,-0.0157,-0.015,-0.0117,-0.0121,-0.0117,-0.0116,-0.0099,-0.0098,-0.0027,-0.0027,0,0,-0.0266,-0.0282,-0.0237,-0.0229,-0.0268,-0.0244,-0.024,-0.0153,-0.015,-0.012,-0.0114,-0.0114,-0.0098,-0.0097,-0.0027,-0.0027,0,0,0,-0.0283,-0.0284,-0.0268,-0.0233,-0.023,-0.0243,-0.0239,-0.0154,-0.0148,-0.0113,-0.0112,-0.0097,-0.0096,-0.0027,-0.0027,-0.0108,0,0,0,-0.0284,-0.0295,-0.027,-0.0278,-0.0232,-0.0199,-0.0242,-0.0154,-0.0144,-0.0113,-0.0097,-0.0095,-0.0027,-0.0027,-0.0105,-0.0137,0,0,0,-0.0294,-0.0296,-0.0291,-0.0279,-0.0261,-0.0201,-0.0189,-0.0152,-0.0144,-0.0099,-0.0095,-0.0027,-0.0027,-0.0103,-0.0134,-0.0116,0,0,0,-0.0308,-0.0325,-0.0292,-0.0309,-0.0262,-0.0248,-0.019,-0.0168,-0.0137,-0.0097,-0.0027,-0.0027,-0.0103,-0.0131,-0.0115,-0.0079,-0.0083,0,0,-0.0342,-0.0329,-0.0341,-0.031,-0.0325,-0.0254,-0.025,-0.0182,-0.0124,-0.005,-0.0048,-0.0106,-0.0133,-0.0116,-0.0084,-0.0089,0,0,0,-0.036,-0.0371,-0.0369,-0.0368,-0.0338,-0.031,-0.024,-0.0197,-0.0134,-0.0107,-0.0085,-0.0099,-0.0086,-0.006,-0.0063,-0.0027,-0.0027,-0.0027,-0.0027,-0.0432,-0.0418,-0.0445,-0.0424,-0.0406,-0.034,-0.0304,-0.0227,-0.017,-0.0152,-0.015,-0.0172,-0.0147,-0.0149,-0.0133,-0.0134,-0.0134,-0.0134,-0.0134,-0.0503,-0.0523,-0.0502,-0.052,-0.0477,-0.0456,-0.0358,-0.0309,-0.023,-0.0193,-0.0176,-0.0129,-0.0157,-0.014,-0.0139,-0.0138,-0.0138,-0.0137,-0.0137,-0.0556,-0.0564,-0.0569,-0.0592,-0.0588,-0.0528,-0.0502,-0.0411,-0.0303,-0.0289,-0.0207,-0.0205,-0.0212,-0.0269,-0.0269,-0.0269,-0.0269,-0.0269,-0.0269,-0.0606,-0.0613,-0.0657,-0.0668,-0.0686,-0.0674,-0.0579,-0.0513,-0.0371,-0.0279,-0.0277,-0.0216,-0.0212,-0.0217,-0.027,-0.027,-0.027,-0.027,-0.027,-0.0672,-0.0671,-0.0743,-0.0773,-0.081,-0.0806,-0.0713,-0.0537,-0.0437,-0.0349,-0.0249,-0.0249,-0.0207,-0.0203,-0.0206,-0.0253,-0.0253,-0.0253,-0.0253,-0.0714,-0.0721,-0.0818,-0.088,-0.0921,-0.0869,-0.0766,-0.0556,-0.0343,-0.0234,-0.0235,-0.0215,-0.0216,-0.0173,-0.0169,-0.017,-0.0208,-0.0208,-0.0208,-0.0762,-0.0788,-0.0862,-0.0918,-0.097,-0.0919,-0.079,-0.0501,-0.022,-0.0208,-0.0247,-0.0246,-0.0218,-0.0219,-0.015,-0.0145,-0.0146,0,0]}],[{"header":{"parameterUnit":"m.s-1","parameterCategory":2,"la1":30.2992,"la2":30.254,"lo1":-89.0895,"lo2":-89.0443,"dy":0.0025,"dx":0.0025,"nx":19,"ny":19,"refTime":"2026-03-10T09:00:00:Z","depth":"4","parameterNumber":2,"parameterNumberName":"U-component_of_CURRENTS"},"data":[0,0,0,-0.1356,-0.1359,-0.1501,-0.1501,-0.1591,-0.1591,0,0,0,0,0,0,0,0,0,0,0,-0.1308,-0.1309,-0.1356,-0.1359,-0.15,-0.1501,-0.1591,-0.1591,0,0,0,0,0,0,0,0,0,0,0,-0.1308,-0.1309,-0.1311,-0.136,-0.15,-0.1501,-0.1591,-0.1505,0,0,0,0,0,0,0,0,0,0,-0.1379,-0.1344,-0.1309,-0.1311,-0.1361,-0.15,-0.1501,-0.1502,-0.151,-0.1503,0,-0.1537,0,-0.1568,-0.1596,-0.1596,0,0,0,-0.1353,-0.1338,-0.1383,-0.1311,-0.1362,-0.15,-0.1435,-0.1507,-0.1517,-0.1513,-0.1539,-0.1543,-0.1569,-0.1596,-0.1597,-0.1701,-0.1701,0,0,-0.1346,-0.1323,-0.1376,-0.1389,-0.1414,-0.1431,-0.144,-0.1514,-0.1523,-0.1539,-0.1546,-0.157,-0.1597,-0.1597,-0.17,-0.1701,0,0,0,-0.1327,-0.1318,-0.1363,-0.1384,-0.1419,-0.1435,-0.1445,-0.152,-0.1538,-0.1547,-0.1572,-0.1597,-0.1598,-0.1699,-0.17,-0.1727,0,0,0,-0.1322,-0.1308,-0.1359,-0.1346,-0.1418,-0.1483,-0.1449,-0.1533,-0.1543,-0.1571,-0.1597,-0.1599,-0.1699,-0.17,-0.1725,-0.1725,0,0,0,-0.1299,-0.1305,-0.1328,-0.1345,-0.141,-0.1483,-0.1505,-0.1536,-0.1557,-0.1596,-0.1599,-0.1698,-0.17,-0.1723,-0.1722,-0.1731,0,0,0,-0.1261,-0.131,-0.1328,-0.139,-0.1409,-0.1507,-0.1505,-0.1579,-0.1618,-0.1598,-0.1699,-0.17,-0.1722,-0.172,-0.173,-0.1495,0,0,0,-0.13,-0.1314,-0.1351,-0.1371,-0.1457,-0.1486,-0.1572,-0.1621,-0.1634,-0.1665,-0.1668,-0.1726,-0.1722,-0.1731,-0.1587,0,0,0,0,-0.1349,-0.1371,-0.1403,-0.1458,-0.1526,-0.1583,-0.1638,-0.1662,-0.1717,-0.1667,-0.1749,-0.1746,-0.175,-0.1611,-0.1708,-0.1707,-0.1707,-0.1707,-0.1707,-0.1328,-0.138,-0.144,-0.151,-0.1571,-0.1656,-0.1701,-0.1743,-0.1754,-0.1789,-0.1786,-0.1834,-0.1691,-0.1812,-0.1812,-0.1813,-0.1813,-0.1813,-0.1813,-0.1353,-0.1383,-0.1452,-0.1534,-0.1604,-0.1678,-0.1761,-0.1787,-0.1838,-0.1838,-0.1842,-0.1672,-0.1816,-0.1816,-0.1815,-0.1815,-0.1814,-0.1814,-0.1814,-0.1319,-0.1342,-0.1409,-0.1507,-0.1597,-0.1689,-0.1741,-0.1815,-0.1856,-0.1873,-0.1721,-0.1851,-0.1826,-0.1881,-0.1881,-0.1881,-0.1881,-0.1881,-0.1881,-0.1246,-0.1316,-0.1362,-0.1476,-0.153,-0.1616,-0.1737,-0.1757,-0.1824,-0.1722,-0.1883,-0.1857,-0.1855,-0.1831,-0.1882,-0.1882,-0.1882,-0.1882,-0.1882,-0.1188,-0.1228,-0.128,-0.1334,-0.144,-0.1481,-0.1633,-0.1622,-0.1627,-0.1575,-0.1634,-0.1646,-0.1608,-0.1612,-0.1578,-0.1556,-0.1553,-0.155,0,-0.1121,-0.1153,-0.119,-0.1229,-0.1263,-0.1386,-0.1338,-0.1393,-0.1442,-0.1391,-0.163,-0.1697,-0.1704,-0.1664,-0.1662,-0.1622,0,0,0,-0.1058,-0.1086,-0.1073,-0.1139,-0.1165,-0.1201,-0.1313,-0.1265,-0.1448,-0.1374,-0.1479,-0.1497,-0.1738,-0.1885,-0.1856,-0.1854,-0.1813,0,0]},{"header":{"parameterUnit":"m.s-1","parameterCategory":2,"la1":30.2992,"la2":30.254,"lo1":-89.0895,"lo2":-89.0443,"dy":0.0025,"dx":0.0025,"nx":19,"ny":19,"refTime":"2026-03-10T09:00:00:Z","depth":"4","parameterNumber":3,"parameterNumberName":"V-component_of_CURRENTS"},"data":[0,0,0,-0.0259,-0.0259,-0.0233,-0.0232,-0.0157,-0.0156,0,0,0,0,0,0,0,0,0,0,0,-0.0267,-0.0267,-0.0259,-0.0259,-0.0233,-0.0232,-0.0157,-0.0156,0,0,0,0,0,0,0,0,0,0,0,-0.0267,-0.0267,-0.0267,-0.0259,-0.0233,-0.0232,-0.0157,-0.0185,0,0,0,0,0,0,0,0,0,0,-0.0215,-0.0237,-0.0267,-0.0267,-0.0259,-0.0233,-0.0232,-0.0187,-0.0184,-0.0159,0,-0.0161,0,-0.0159,-0.0151,-0.015,0,0,0,-0.0251,-0.024,-0.0229,-0.0267,-0.0259,-0.0233,-0.0242,-0.0185,-0.0181,-0.0154,-0.016,-0.0157,-0.0158,-0.015,-0.015,-0.0079,-0.0079,0,0,-0.0252,-0.0263,-0.0232,-0.0227,-0.0258,-0.0243,-0.0241,-0.0183,-0.0183,-0.016,-0.0156,-0.0157,-0.015,-0.0149,-0.008,-0.0079,0,0,0,-0.0262,-0.0264,-0.0255,-0.023,-0.023,-0.0243,-0.0241,-0.0186,-0.0182,-0.0155,-0.0156,-0.0149,-0.0148,-0.008,-0.008,-0.0146,0,0,0,-0.0262,-0.027,-0.0256,-0.0262,-0.0232,-0.0215,-0.0244,-0.0186,-0.0179,-0.0156,-0.0149,-0.0148,-0.008,-0.008,-0.0145,-0.0173,0,0,0,-0.0267,-0.0271,-0.0269,-0.0263,-0.0255,-0.0216,-0.0209,-0.0185,-0.018,-0.015,-0.0147,-0.008,-0.008,-0.0144,-0.017,-0.0159,0,0,0,-0.0277,-0.0286,-0.0269,-0.0281,-0.0255,-0.0246,-0.0209,-0.0197,-0.0176,-0.0149,-0.008,-0.008,-0.0143,-0.0168,-0.0158,-0.0173,0,0,0,-0.0295,-0.0289,-0.0295,-0.028,-0.0292,-0.0249,-0.0245,-0.0202,-0.0157,-0.0095,-0.0094,-0.0145,-0.017,-0.0159,-0.0147,0,0,0,0,-0.0305,-0.0314,-0.0314,-0.0317,-0.0299,-0.0286,-0.024,-0.0207,-0.0157,-0.0143,-0.0118,-0.013,-0.0122,-0.0126,-0.0077,-0.0078,-0.0078,-0.0078,-0.0078,-0.0349,-0.0343,-0.0363,-0.0355,-0.0346,-0.0304,-0.028,-0.022,-0.0178,-0.016,-0.0165,-0.0174,-0.018,-0.014,-0.0141,-0.0141,-0.0141,-0.0141,-0.0141,-0.0394,-0.0409,-0.0404,-0.0422,-0.0401,-0.0389,-0.0316,-0.028,-0.0216,-0.0187,-0.0176,-0.0171,-0.0147,-0.0146,-0.0145,-0.0145,-0.0144,-0.0144,-0.0143,-0.0427,-0.0434,-0.0447,-0.0476,-0.0485,-0.0448,-0.0431,-0.0361,-0.0276,-0.0266,-0.0233,-0.0201,-0.0217,-0.0253,-0.0253,-0.0253,-0.0253,-0.0253,-0.0253,-0.0454,-0.0467,-0.051,-0.0533,-0.0559,-0.0559,-0.0496,-0.0447,-0.0356,-0.0297,-0.0276,-0.0211,-0.0207,-0.022,-0.0254,-0.0254,-0.0254,-0.0254,-0.0254,-0.0491,-0.05,-0.0565,-0.0602,-0.065,-0.0643,-0.0594,-0.0477,-0.0419,-0.0348,-0.0296,-0.0293,-0.0262,-0.0257,-0.0271,-0.0322,-0.0322,-0.0322,0,-0.0516,-0.0525,-0.0615,-0.0676,-0.0712,-0.0688,-0.0621,-0.0545,-0.0421,-0.0417,-0.0417,-0.0364,-0.036,-0.0331,-0.0326,-0.0347,0,0,0,-0.0545,-0.057,-0.0635,-0.0694,-0.0737,-0.065,-0.0599,-0.0554,-0.0442,-0.0381,-0.033,-0.0328,-0.0325,-0.0258,-0.0204,-0.02,-0.0218,0,0]}]]